Zurück zum Katalog

DELTA 1 DEB

AktivSSO
NORAD 7147·DEBRIS·🇺🇸 United States

Gestartet Nov 6, 1973 von Vandenberg Space Force Base

Loading…

Nächste Überflüge (nächste 24 Stunden)

TLE

AktuellSource: Space-Track

Epoche: Sep 14, 2026, 14:29 UTC

1 07147U 73086DM  26257.60404527  .00000013  00000-0  47077-3 0  9995
2 07147 102.2130 202.8230 0054884 163.4046  11.1082 12.33143302378058

Verfolge DELTA 1 DEB in Echtzeit mit AllMySat

Download on the App Store